Total_Precipitation_Accumulation
0.00 0.00 0.00 0.04 0.19 0.32 0.44 0.38 0.29 0.16 0.22 0.22 0.23 0.23 0.26 0.26 0.23 0.14 0.03 0.01 0.00 0.00 0.01 0.05 0.07 0.05 0.03 0.03 0.05 0.08 0.09 0.11 0.10 0.10 0.11 0.10 0.07 0.04 0.02 0.01 0.01 0.01 0.01 0.01 0.01 0.01 0.01 0.01 0.01
0.00 0.00 0.00 0.03 0.15 0.35 0.44 0.38 0.27 0.20 0.23 0.28 0.41 0.40 0.27 0.18 0.13 0.05 0.02 0.00 0.00 0.00 0.01 0.01 0.05 0.05 0.03 0.03 0.04 0.06 0.07 0.07 0.08 0.08 0.07 0.07 0.05 0.03 0.02 0.02 0.01 0.02 0.02 0.02 0.02 0.02 0.02 0.01 0.01
0.00 0.00 0.01 0.02 0.08 0.18 0.23 0.16 0.16 0.22 0.31 0.40 0.45 0.42 0.28 0.18 0.11 0.06 0.02 0.01 0.01 0.01 0.01 0.02 0.04 0.04 0.04 0.04 0.03 0.04 0.05 0.06 0.06 0.06 0.06 0.05 0.04 0.03 0.02 0.02 0.02 0.03 0.04 0.04 0.04 0.04 0.03 0.02 0.01
0.00 0.00 0.01 0.02 0.02 0.04 0.06 0.10 0.16 0.27 0.46 0.69 0.67 0.43 0.22 0.15 0.11 0.07 0.03 0.01 0.01 0.01 0.01 0.03 0.04 0.04 0.04 0.03 0.03 0.03 0.05 0.06 0.06 0.06 0.06 0.05 0.04 0.04 0.03 0.03 0.03 0.05 0.08 0.08 0.09 0.08 0.06 0.03 0.01
0.00 0.01 0.01 0.01 0.02 0.02 0.04 0.11 0.21 0.34 0.49 0.67 0.68 0.44 0.24 0.18 0.14 0.09 0.03 0.02 0.01 0.01 0.02 0.03 0.05 0.05 0.04 0.04 0.05 0.05 0.05 0.06 0.07 0.07 0.07 0.07 0.06 0.06 0.05 0.05 0.05 0.06 0.08 0.09 0.10 0.11 0.09 0.05 0.02
0.00 0.00 0.00 0.01 0.01 0.02 0.06 0.13 0.23 0.34 0.48 0.60 0.80 0.61 0.34 0.25 0.23 0.17 0.07 0.03 0.02 0.02 0.02 0.04 0.06 0.06 0.05 0.05 0.06 0.07 0.06 0.08 0.09 0.09 0.09 0.08 0.08 0.08 0.10 0.09 0.08 0.08 0.09 0.10 0.11 0.12 0.12 0.09 0.05
0.00 0.00 0.00 0.00 0.01 0.04 0.06 0.12 0.23 0.36 0.47 0.69 0.92 0.76 0.41 0.26 0.26 0.23 0.14 0.06 0.05 0.04 0.04 0.06 0.08 0.08 0.08 0.08 0.09 0.10 0.10 0.11 0.11 0.12 0.11 0.09 0.09 0.11 0.13 0.15 0.14 0.13 0.13 0.13 0.15 0.16 0.16 0.15 0.12
0.00 0.00 0.00 0.00 0.01 0.04 0.10 0.14 0.27 0.45 0.56 0.73 0.89 0.80 0.66 0.40 0.30 0.29 0.22 0.13 0.10 0.07 0.05 0.06 0.10 0.13 0.13 0.13 0.14 0.14 0.14 0.14 0.14 0.15 0.15 0.14 0.14 0.16 0.22 0.23 0.22 0.23 0.24 0.25 0.27 0.27 0.30 0.29 0.25
0.00 0.00 0.00 0.00 0.01 0.09 0.13 0.17 0.23 0.32 0.45 0.63 0.77 0.72 0.58 0.39 0.40 0.47 0.40 0.25 0.16 0.11 0.11 0.11 0.13 0.15 0.18 0.20 0.21 0.26 0.27 0.30 0.32 0.35 0.35 0.30 0.26 0.32 0.44 0.42 0.42 0.45 0.49 0.53 0.59 0.59 0.62 0.61 0.47
0.00 0.00 0.00 0.00 0.00 0.05 0.11 0.15 0.23 0.30 0.61 1.03 1.04 0.69 0.44 0.50 0.57 0.63 0.60 0.46 0.31 0.22 0.20 0.20 0.20 0.24 0.27 0.28 0.48 0.58 0.59 0.71 0.65 0.72 0.69 0.65 0.63 0.51 0.39 0.48 0.62 0.75 0.91 1.00 1.09 1.18 1.19 1.05 0.78
0.00 0.00 0.00 0.00 0.01 0.01 0.04 0.10 0.18 0.34 0.72 1.21 1.33 0.95 0.73 0.70 0.78 0.70 0.71 0.68 0.56 0.45 0.34 0.29 0.34 0.35 0.38 0.46 0.68 0.81 0.85 0.94 0.92 0.97 1.04 1.11 1.09 0.90 0.77 0.88 1.09 1.19 1.33 1.32 1.51 1.72 1.42 1.32 1.27
0.00 0.00 0.00 0.00 0.01 0.01 0.08 0.14 0.22 0.27 0.60 0.90 0.81 0.66 0.66 0.69 0.82 0.82 0.80 0.85 0.72 0.64 0.61 0.61 0.65 0.64 0.65 0.75 0.79 0.83 0.80 0.86 0.92 1.04 1.19 1.32 1.29 1.30 1.26 1.27 1.34 1.43 1.56 1.66 1.77 1.80 1.73 1.84 1.79
0.00 0.00 0.00 0.01 0.02 0.03 0.09 0.12 0.20 0.32 0.40 0.52 0.47 0.53 0.73 0.78 0.86 0.87 0.83 0.84 0.93 1.01 1.02 0.99 0.95 0.88 0.80 0.72 0.70 0.68 0.67 0.68 0.78 0.88 0.95 1.06 1.27 1.41 1.41 1.25 1.21 1.24 1.44 1.70 1.95 1.97 2.17 2.22 1.99
0.00 0.00 0.00 0.01 0.02 0.03 0.06 0.08 0.17 0.34 0.40 0.51 0.60 0.61 0.77 0.93 0.97 0.97 1.05 1.18 1.43 1.49 1.43 1.36 1.20 1.01 0.92 0.83 0.73 0.70 0.64 0.67 0.70 0.71 0.80 0.96 1.10 1.26 1.21 1.20 1.24 1.26 1.27 1.38 1.71 1.91 2.09 2.00 1.76
0.00 0.02 0.03 0.03 0.02 0.03 0.04 0.13 0.30 0.45 0.64 0.65 0.74 0.76 0.85 1.15 1.26 1.38 1.55 1.78 2.08 2.24 1.94 1.54 1.28 1.08 0.95 0.94 0.87 0.78 0.70 0.66 0.67 0.64 0.70 0.79 0.86 0.97 1.01 1.00 0.99 1.04 1.05 1.07 1.20 1.36 1.50 1.42 1.29
0.01 0.06 0.15 0.07 0.03 0.05 0.09 0.37 0.57 0.48 0.76 1.04 0.91 1.00 1.21 1.46 1.55 1.72 2.01 2.40 2.81 2.90 2.47 1.83 1.54 1.50 1.36 1.20 0.92 0.73 0.65 0.58 0.51 0.48 0.50 0.53 0.55 0.58 0.61 0.60 0.58 0.62 0.61 0.65 0.74 0.83 0.91 0.96 1.03
0.02 0.05 0.13 0.15 0.08 0.07 0.16 0.52 0.69 0.50 0.61 0.88 1.03 1.15 1.41 1.58 1.56 1.61 1.85 2.32 2.90 3.28 3.05 2.40 2.18 2.17 1.63 1.02 0.70 0.55 0.48 0.39 0.35 0.37 0.35 0.37 0.39 0.40 0.43 0.42 0.41 0.40 0.38 0.39 0.41 0.49 0.59 0.67 0.74
0.02 0.03 0.08 0.19 0.14 0.14 0.22 0.41 0.66 0.68 0.81 1.00 1.07 1.12 1.29 1.31 1.26 1.34 1.40 1.48 2.06 2.43 2.23 2.02 1.96 1.58 1.05 0.62 0.43 0.31 0.27 0.23 0.21 0.25 0.27 0.28 0.31 0.33 0.36 0.34 0.33 0.29 0.27 0.29 0.34 0.38 0.41 0.42 0.46
0.02 0.03 0.07 0.13 0.14 0.21 0.34 0.44 0.61 0.73 0.93 1.08 1.07 1.00 0.96 0.97 1.00 1.03 0.98 0.86 0.97 1.06 0.98 1.04 0.98 0.85 0.54 0.37 0.24 0.17 0.14 0.13 0.13 0.16 0.16 0.19 0.23 0.28 0.34 0.29 0.32 0.29 0.24 0.24 0.26 0.29 0.30 0.28 0.29
0.03 0.05 0.10 0.13 0.13 0.18 0.32 0.56 0.68 0.74 0.75 0.83 0.89 0.81 0.77 0.79 0.79 0.67 0.57 0.57 0.49 0.51 0.52 0.51 0.51 0.42 0.25 0.18 0.15 0.13 0.11 0.08 0.07 0.07 0.09 0.09 0.12 0.17 0.23 0.30 0.25 0.25 0.25 0.25 0.24 0.26 0.25 0.22 0.24
0.04 0.05 0.06 0.10 0.10 0.17 0.31 0.75 0.81 0.69 0.61 0.56 0.65 0.68 0.60 0.58 0.50 0.37 0.31 0.27 0.36 0.52 0.43 0.27 0.26 0.21 0.13 0.11 0.10 0.10 0.10 0.10 0.09 0.08 0.07 0.08 0.07 0.09 0.14 0.21 0.24 0.27 0.24 0.27 0.32 0.30 0.27 0.21 0.19
0.03 0.03 0.02 0.02 0.06 0.28 0.38 0.77 0.83 0.67 0.66 0.51 0.47 0.48 0.35 0.27 0.25 0.24 0.20 0.18 0.23 0.30 0.28 0.22 0.21 0.20 0.12 0.09 0.08 0.08 0.07 0.08 0.08 0.07 0.06 0.07 0.06 0.07 0.08 0.10 0.15 0.22 0.26 0.33 0.26 0.29 0.30 0.25 0.19
0.01 0.01 0.01 0.03 0.07 0.18 0.30 0.63 0.80 0.59 0.67 0.47 0.29 0.19 0.11 0.08 0.09 0.13 0.12 0.10 0.09 0.09 0.13 0.16 0.25 0.29 0.20 0.14 0.10 0.09 0.07 0.06 0.07 0.07 0.07 0.08 0.10 0.11 0.12 0.12 0.11 0.12 0.19 0.26 0.29 0.35 0.32 0.32 0.27
0.01 0.01 0.07 0.14 0.18 0.37 0.40 0.42 0.67 0.47 0.35 0.20 0.12 0.07 0.04 0.03 0.03 0.06 0.06 0.05 0.05 0.06 0.07 0.10 0.19 0.26 0.21 0.16 0.14 0.15 0.15 0.13 0.12 0.11 0.11 0.14 0.17 0.19 0.19 0.20 0.20 0.19 0.17 0.17 0.19 0.24 0.30 0.35 0.36
0.01 0.02 0.14 0.31 0.44 0.54 0.27 0.43 0.73 0.35 0.19 0.09 0.06 0.03 0.02 0.01 0.01 0.02 0.02 0.03 0.03 0.04 0.04 0.04 0.08 0.13 0.12 0.10 0.11 0.16 0.23 0.29 0.30 0.25 0.22 0.20 0.21 0.23 0.23 0.22 0.24 0.27 0.27 0.25 0.20 0.16 0.20 0.28 0.33
0.01 0.01 0.03 0.06 0.13 0.23 0.26 0.82 0.65 0.18 0.09 0.05 0.02 0.02 0.02 0.01 0.01 0.01 0.01 0.02 0.01 0.01 0.01 0.02 0.03 0.03 0.03 0.04 0.05 0.07 0.11 0.18 0.26 0.31 0.30 0.30 0.32 0.27 0.23 0.21 0.22 0.26 0.30 0.31 0.28 0.22 0.20 0.22 0.26
0.01 0.00 0.01 0.01 0.03 0.13 0.35 0.51 0.26 0.07 0.03 0.02 0.01 0.01 0.01 0.00 0.00 0.00 0.00 0.00 0.00 0.00 0.00 0.00 0.01 0.01 0.01 0.01 0.01 0.01 0.02 0.04 0.06 0.10 0.14 0.21 0.31 0.30 0.24 0.20 0.19 0.22 0.25 0.30 0.31 0.30 0.29 0.27 0.24
0.02 0.01 0.01 0.01 0.03 0.09 0.24 0.40 0.35 0.11 0.04 0.02 0.01 0.01 0.00 0.00 0.00 0.00 0.00 0.00 0.00 0.00 0.00 0.00 0.00 0.00 0.00 0.00 0.00 0.00 0.01 0.01 0.02 0.03 0.04 0.06 0.11 0.15 0.15 0.15 0.15 0.17 0.19 0.23 0.29 0.34 0.40 0.42 0.38
0.02 0.01 0.01 0.01 0.02 0.03 0.11 0.18 0.15 0.08 0.06 0.02 0.01 0.00 0.00 0.00 0.00 0.00 0.00 0.00 0.00 0.00 0.00 0.00 0.00 0.00 0.00 0.00 0.00 0.00 0.00 0.00 0.00 0.01 0.01 0.02 0.02 0.03 0.04 0.06 0.08 0.10 0.12 0.15 0.21 0.27 0.38 0.51 0.59
0.02 0.01 0.01 0.01 0.02 0.02 0.03 0.04 0.04 0.03 0.04 0.02 0.01 0.00 0.00 0.00 0.00 0.00 0.00 0.00 0.00 0.00 0.00 0.00 0.00 0.00 0.00 0.00 0.00 0.00 0.00 0.00 0.00 0.00 0.00 0.00 0.01 0.01 0.01 0.02 0.02 0.03 0.04 0.07 0.11 0.17 0.24 0.37 0.53